RH
54 52 53 54 55 55 54 54 56 55 55 58 54 52 52 54 56 55 53 51 51 54 58 60 61 60 59 57 55 54 53 53 53 53 53 54 54 54 55 55 55 54 54 53 53 52 53 55 65 75 82 85 82 77 71 67 68 69 71 71 74 78 82 84 86 89 91 91 91
59 58 59 63 66 67 67 67 67 65 64 65 62 61 59 60 57 57 57 56 53 55 58 61 62 62 62 61 61 60 59 58 57 56 55 55 55 56 57 58 58 57 55 54 54 54 55 59 71 80 85 88 86 81 74 69 70 71 72 74 80 85 88 88 90 92 93 93 92
64 65 67 71 76 77 76 75 74 74 73 70 67 64 61 60 59 59 60 59 58 57 57 58 61 63 63 63 64 64 63 62 61 60 59 59 59 59 60 60 58 57 56 57 57 57 59 64 77 85 89 91 87 80 73 71 72 73 76 82 88 91 92 92 93 93 93 93 91
64 69 74 78 78 77 75 74 77 78 78 73 68 64 61 59 59 59 58 57 57 56 55 57 61 63 64 64 65 65 64 63 63 63 63 63 63 62 62 62 61 60 60 60 59 59 61 68 80 87 90 90 84 79 74 74 75 78 85 92 93 93 92 91 92 92 92 91 91
59 66 74 79 80 78 76 74 76 77 77 75 71 68 64 61 59 58 56 56 55 55 55 57 61 62 62 60 61 62 63 63 64 64 64 64 64 63 62 62 61 60 60 59 59 59 61 67 79 86 88 85 79 77 76 76 79 85 92 94 94 93 93 91 90 90 90 90 91
57 65 71 76 77 76 74 71 72 73 75 75 73 70 67 63 61 59 58 58 57 57 58 59 61 61 60 58 57 58 59 61 62 63 64 64 64 63 62 62 61 60 60 59 59 59 61 66 76 82 85 81 77 76 76 76 83 90 93 93 94 94 94 94 93 92 92 92 93
58 63 67 69 70 70 69 68 69 71 73 73 73 72 69 66 64 62 61 60 60 60 61 62 62 63 62 60 58 57 56 56 58 60 62 63 63 63 63 62 61 61 60 59 58 58 60 64 72 78 82 81 79 77 76 77 86 91 93 93 93 94 94 94 94 94 94 94 94
63 65 67 68 68 69 70 72 73 73 74 74 74 73 72 71 68 66 64 63 63 64 65 66 66 66 66 66 64 61 58 55 56 57 59 61 62 63 63 62 62 61 60 59 58 58 59 62 69 76 82 84 82 79 78 82 89 92 91 91 92 92 93 94 94 94 94 94 94
78 79 80 80 81 82 83 83 81 80 78 76 75 75 75 74 72 70 68 67 67 69 70 71 71 71 72 71 69 65 62 58 57 57 59 60 61 62 62 62 61 61 61 60 58 58 58 61 68 76 83 87 85 82 81 88 92 93 92 92 91 91 92 93 93 93 94 94 94
87 88 89 89 89 90 90 89 88 86 83 80 79 79 78 76 74 73 72 72 74 75 76 76 75 75 75 74 71 68 66 63 61 60 60 61 61 61 61 60 60 59 59 59 57 57 58 60 67 75 84 88 87 86 87 92 93 94 94 93 93 92 92 92 92 92 92 92 93
87 88 89 89 89 90 90 90 89 88 86 85 84 82 81 79 76 76 76 77 79 81 81 80 78 77 76 74 73 71 69 66 64 62 61 62 61 61 60 60 59 58 58 57 56 56 56 58 65 74 84 89 88 88 90 93 94 94 94 94 94 93 93 92 92 91 91 91 91
86 88 89 90 90 90 91 91 89 88 88 87 86 85 83 82 80 79 80 81 82 82 81 80 78 76 74 73 72 72 71 70 67 64 62 63 61 60 60 59 59 58 58 57 57 56 56 58 63 72 82 90 90 90 91 92 93 93 93 93 94 94 94 94 93 93 93 93 93
87 88 89 90 90 90 90 90 89 89 88 87 86 86 85 85 84 83 82 82 81 80 78 77 75 74 73 72 72 72 72 72 69 67 64 63 62 60 60 59 60 59 59 58 57 57 57 58 63 70 79 88 90 91 91 92 92 92 92 92 92 93 94 94 94 94 94 94 94
85 87 88 89 89 89 89 89 89 89 88 87 86 86 86 86 86 84 83 81 80 78 76 74 73 73 73 73 73 73 72 72 70 68 66 64 63 62 62 62 63 62 61 59 58 57 58 59 63 69 77 85 88 90 90 91 91 92 91 91 91 91 93 94 94 94 94 94 94
83 84 85 86 87 87 88 88 88 89 88 87 86 85 85 85 85 85 84 83 80 78 76 75 75 76 76 76 75 75 74 74 72 71 69 67 66 65 64 65 65 64 62 60 58 58 58 59 62 67 74 81 85 87 87 87 88 89 90 90 90 90 90 92 92 92 92 93 93
80 80 81 83 84 86 86 86 86 87 87 86 85 84 83 83 84 84 84 83 81 80 79 78 79 80 79 78 77 77 77 78 77 76 74 72 70 69 67 66 66 64 63 61 59 58 58 59 61 65 70 76 79 81 81 82 82 83 86 88 89 89 89 91 91 91 90 91 92
78 77 77 79 81 83 84 84 83 84 84 85 84 83 81 80 80 80 81 81 80 81 82 82 81 80 80 79 78 78 79 81 82 83 82 80 78 75 73 71 69 67 65 62 61 59 59 59 60 63 67 71 73 75 75 77 78 79 82 84 86 88 89 91 91 91 90 90 90
76 75 74 75 77 79 81 81 80 80 81 81 82 81 80 78 77 76 76 77 77 79 80 80 79 78 77 76 76 77 78 80 82 84 85 85 85 83 81 79 77 74 72 69 66 64 62 61 62 63 67 70 73 75 76 77 79 80 82 84 86 87 89 91 91 91 91 91 91
75 74 73 73 73 74 75 77 76 76 75 76 78 78 77 76 74 73 73 73 74 75 77 77 76 75 74 73 74 74 74 75 77 79 81 83 84 85 85 85 84 83 81 78 75 73 71 69 68 69 72 76 79 81 83 84 85 86 86 87 88 90 91 92 92 92 92 93 92
71 72 71 70 70 70 70 71 71 71 70 71 72 73 74 73 73 73 72 72 73 74 75 75 75 74 73 72 72 72 72 72 72 73 75 77 79 80 82 84 85 85 85 85 84 83 82 80 79 79 81 84 86 89 90 91 91 91 91 92 92 93 93 93 94 94 94 94 94
64 66 67 66 66 65 65 65 65 66 66 67 68 69 70 71 71 72 72 72 72 73 74 74 74 73 72 72 72 72 72 71 71 71 71 71 72 74 75 77 78 80 81 83 84 85 86 86 86 87 88 89 90 91 92 92 93 93 93 93 94 94 94 94 94 94 94 94 94
55 58 60 60 58 57 56 56 57 58 60 60 61 63 64 65 67 68 69 70 71 71 72 73 73 72 71 70 70 70 71 71 71 70 70 70 70 71 71 72 73 74 75 76 77 79 81 83 84 86 87 89 90 91 91 92 92 92 92 93 93 93 93 93 93 93 94 94 94
49 50 51 51 51 50 49 49 49 50 51 52 53 53 54 55 57 59 61 62 62 64 66 68 69 70 69 69 68 68 68 68 69 69 70 70 70 70 71 72 72 72 72 72 73 74 75 76 77 79 81 83 85 87 89 90 90 91 91 92 92 92 92 92 92 92 92 92 93
49 48 48 46 47 47 47 46 45 45 46 47 46 44 43 44 45 47 48 49 50 52 55 59 63 65 66 66 65 65 64 64 64 65 66 66 67 68 69 70 71 72 73 73 73 73 73 73 74 74 75 76 78 80 83 85 87 88 89 90 90 91 91 91 91 91 91 91 91
52 51 50 48 48 48 48 48 47 46 45 43 42 40 39 38 39 40 41 43 44 46 47 50 53 56 58 60 60 60 61 61 60 60 60 60 61 62 63 65 67 69 71 72 73 73 73 73 73 73 73 73 74 74 76 77 80 82 84 86 87 88 89 90 90 90 90 90 90
49 49 49 49 48 48 48 48 47 46 45 43 43 42 41 41 41 41 42 43 43 43 43 44 45 47 49 51 52 53 54 55 55 56 56 55 56 56 57 58 60 62 65 67 68 69 70 71 72 72 72 73 73 73 73 73 74 75 77 79 81 83 85 86 88 89 89 90 89
47 47 47 47 47 47 46 47 46 46 45 45 45 44 44 44 44 43 43 43 43 42 42 42 42 42 42 43 44 45 46 47 48 48 49 49 50 50 51 52 53 54 56 58 59 61 62 64 65 66 67 68 69 70 71 72 72 73 73 74 75 76 78 80 82 84 86 87 87
47 47 47 47 47 46 46 46 46 46 46 46 45 45 45 45 45 44 44 44 43 42 41 40 40 40 39 39 40 40 41 41 42 42 43 43 44 44 45 45 46 47 47 48 50 51 53 55 56 58 59 60 60 61 62 64 65 67 69 70 71 72 73 73 74 75 76 78 80
46 46 46 46 46 46 46 46 46 45 45 45 45 45 45 45 44 44 44 43 42 41 40 39 38 37 36 36 36 36 37 37 37 38 38 39 40 40 40 41 41 42 42 42 43 44 45 46 47 48 49 50 51 52 52 53 54 55 57 59 62 64 66 68 69 70 70 71 72
38 41 42 44 45 45 45 45 45 45 45 45 45 45 44 44 44 43 43 42 42 41 40 39 37 36 35 33 33 33 33 34 34 34 35 35 35 36 37 37 38 38 38 39 39 40 40 41 41 42 42 43 43 44 45 45 46 46 47 47 48 49 51 53 56 59 62 64 65
25 28 31 34 36 38 39 41 41 42 43 43 43 43 43 43 43 42 42 41 40 39 38 36 35 34 33 31 30 29 28 28 29 30 31 32 33 33 34 34 35 35 36 36 37 37 38 38 39 39 39 39 39 39 40 40 40 40 40 40 39 39 38 39 41 43 46 49 52
16 16 18 19 21 23 26 27 29 30 31 32 33 34 35 35 36 36 35 35 34 33 31 30 28 27 26 25 24 23 22 21 21 22 23 25 27 29 30 32 32 33 34 34 34 35 35 36 36 36 36 36 36 36 36 36 36 36 36 35 35 34 33 33 33 33 34 35 38
11 11 11 11 12 12 13 13 14 15 15 16 17 18 18 19 20 20 20 20 20 20 20 19 18 17 16 16 16 15 15 14 14 13 13 14 16 18 21 24 26 27 28 29 30 30 31 31 31 32 32 32 32 32 32 32 32 32 32 32 31 31 31 30 30 29 29 29 30
11 11 11 10 10 10 10 10 10 10 10 10 10 10 10 10 10 10 11 11 11 11 11 11 11 11 11 11 12 12 12 12 12 12 12 12 11 12 12 14 16 18 19 20 21 22 22 23 23 23 23 23 24 24 24 25 25 25 26 26 26 26 26 26 26 26 26 25 26
14 13 13 13 12 12 12 12 11 11 11 11 11 11 11 11 11 11 11 11 11 11 11 11 11 12 12 12 12 12 12 12 13 13 13 13 13 13 13 12 13 13 14 14 15 15 16 16 16 16 16 16 17 17 17 17 18 18 18 18 18 19 19 19 20 20 20 20 21
15 14 14 14 14 13 13 13 13 13 12 12 12 12 12 12 12 12 12 11 11 11 11 11 11 11 12 12 12 12 12 12 12 12 12 12 13 13 13 13 13 13 13 13 13 14 14 14 14 15 15 15 16 16 16 16 16 16 15 15 15 15 15 15 15 15 15 16 16
15 14 14 14 13 13 13 13 13 12 12 12 12 12 11 11 11 11 11 10 10 10 10 10 10 10 10 11 11 11 11 11 11 11 11 12 12 12 12 12 12 12 12 12 13 13 13 14 15 15 15 16 17 17 18 18 17 17 17 16 16 16 15 15 15 15 15 15 15
14 14 13 13 13 13 12 12 12 12 12 12 11 11 11 11 11 11 11 10 10 10 10 10 10 10 11 11 11 11 11 11 11 11 11 12 12 12 12 12 13 13 13 13 13 14 14 15 16 17 17 17 18 18 18 18 18 18 18 18 18 18 18 18 17 17 16 16 15
13 12 12 12 12 11 11 11 11 11 11 11 11 11 11 11 11 11 11 11 11 11 11 11 11 11 11 11 11 12 12 12 12 12 12 12 13 13 13 14 15 15 16 16 16 17 18 18 19 20 20 20 20 20 20 19 19 19 20 20 20 20 20 20 20 19 18 16 16
11 11 11 11 10 10 10 10 10 10 10 10 10 10 10 11 11 11 11 11 11 11 11 11 11 11 11 12 12 12 12 12 12 12 12 12 13 13 14 14 15 16 17 17 18 19 20 21 22 22 23 23 23 22 22 22 22 22 22 22 22 22 22 22 22 21 20 18 17
10 10 10 10 10 10 9 9 9 10 10 9 9 9 10 10 10 10 10 10 10 10 10 10 10 11 11 11 11 11 11 12 12 12 12 12 12 13 13 13 14 14 15 15 16 17 18 20 21 23 23 24 24 24 24 24 24 24 24 24 24 23 23 24 23 23 22 21 20